<?xml version="1.0" encoding="UTF-8" standalone="no" ?>
<gpx xmlns="http://www.topografix.com/GPX/1/1" xmlns:xsi="http://www.w3.org/2001/XMLSchema-instance" xsi:schemaLocation="http://www.topografix.com/GPX/1/1 http://www.topografix.com/GPX/1/1/gpx.xsd" version="1.1" creator="VisuGPX - https://www.visugpx.com">
  <metadata>
    <name>CAF CHALON LGC 2014 10km</name>
    <desc><![CDATA[manifestation CAF Le Grand Chalon 2014 10km]]></desc>
  </metadata>
  <trk>
    <name><![CDATA[LGC 2013 10km 2013]]></name>
    <trkseg>
      <trkpt lat="46.83351" lon="4.72162">
        <ele>229</ele>
        <time>2013-05-22T01:40:02Z</time>
      </trkpt>
      <trkpt lat="46.83368" lon="4.72136">
        <ele>229</ele>
      </trkpt>
      <trkpt lat="46.83179" lon="4.72061">
        <ele>240</ele>
      </trkpt>
      <trkpt lat="46.83126" lon="4.72155">
        <ele>239</ele>
      </trkpt>
      <trkpt lat="46.83116" lon="4.72256">
        <ele>240</ele>
      </trkpt>
      <trkpt lat="46.83144" lon="4.72381">
        <ele>235</ele>
      </trkpt>
      <trkpt lat="46.83203" lon="4.7246">
        <ele>228</ele>
        <time>2013-05-22T01:40:02Z</time>
      </trkpt>
      <trkpt lat="46.83223" lon="4.7243">
        <ele>228</ele>
        <time>2013-05-22T01:40:02Z</time>
      </trkpt>
      <trkpt lat="46.83581" lon="4.7258">
        <ele>235</ele>
        <time>2013-05-22T01:40:02Z</time>
      </trkpt>
      <trkpt lat="46.83711" lon="4.72673">
        <ele>243</ele>
        <time>2013-05-22T01:40:02Z</time>
      </trkpt>
      <trkpt lat="46.83693" lon="4.72731">
        <ele>243</ele>
        <time>2013-05-22T01:40:02Z</time>
      </trkpt>
      <trkpt lat="46.83728" lon="4.72764">
        <ele>249</ele>
        <time>2013-05-22T01:40:02Z</time>
      </trkpt>
      <trkpt lat="46.83767" lon="4.72766">
        <ele>249</ele>
        <time>2013-05-22T01:40:02Z</time>
      </trkpt>
      <trkpt lat="46.83792" lon="4.72793">
        <ele>251</ele>
        <time>2013-05-22T01:40:02Z</time>
      </trkpt>
      <trkpt lat="46.83799" lon="4.72877">
        <ele>251</ele>
      </trkpt>
      <trkpt lat="46.83785" lon="4.73001">
        <ele>247</ele>
        <time>2013-05-22T01:40:02Z</time>
      </trkpt>
      <trkpt lat="46.83835" lon="4.7306">
        <ele>251</ele>
        <time>2013-05-22T01:40:02Z</time>
      </trkpt>
      <trkpt lat="46.83878" lon="4.73205">
        <ele>251</ele>
        <time>2013-05-22T01:40:02Z</time>
      </trkpt>
      <trkpt lat="46.83953" lon="4.73302">
        <ele>253</ele>
        <time>2013-05-22T01:40:02Z</time>
      </trkpt>
      <trkpt lat="46.8399" lon="4.73471">
        <ele>254</ele>
        <time>2013-05-22T01:40:02Z</time>
      </trkpt>
      <trkpt lat="46.83926" lon="4.73622">
        <ele>253</ele>
        <time>2013-05-22T01:40:02Z</time>
      </trkpt>
      <trkpt lat="46.84023" lon="4.73613">
        <ele>258</ele>
        <time>2013-05-22T01:40:02Z</time>
      </trkpt>
      <trkpt lat="46.84104" lon="4.7362">
        <ele>262</ele>
      </trkpt>
      <trkpt lat="46.8422" lon="4.73605">
        <ele>272</ele>
        <time>2013-05-22T01:40:02Z</time>
      </trkpt>
      <trkpt lat="46.84234" lon="4.73573">
        <ele>274</ele>
      </trkpt>
      <trkpt lat="46.8426" lon="4.73545">
        <ele>277</ele>
      </trkpt>
      <trkpt lat="46.84289" lon="4.73471">
        <ele>284</ele>
      </trkpt>
      <trkpt lat="46.84336" lon="4.73397">
        <ele>285</ele>
        <time>2013-05-22T01:40:02Z</time>
      </trkpt>
      <trkpt lat="46.84262" lon="4.73278">
        <ele>297</ele>
        <time>2013-05-22T01:40:02Z</time>
      </trkpt>
      <trkpt lat="46.84409" lon="4.73024">
        <ele>311</ele>
      </trkpt>
      <trkpt lat="46.84498" lon="4.72875">
        <ele>321</ele>
        <time>2013-05-22T01:40:02Z</time>
      </trkpt>
      <trkpt lat="46.84589" lon="4.7284">
        <ele>328</ele>
        <time>2013-05-22T01:40:02Z</time>
      </trkpt>
      <trkpt lat="46.84612" lon="4.72823">
        <ele>330</ele>
      </trkpt>
      <trkpt lat="46.84755" lon="4.72793">
        <ele>333</ele>
        <time>2013-05-22T01:40:02Z</time>
      </trkpt>
      <trkpt lat="46.84794" lon="4.727">
        <ele>329</ele>
        <time>2013-05-22T01:40:02Z</time>
      </trkpt>
      <trkpt lat="46.84864" lon="4.72486">
        <ele>326</ele>
        <time>2013-05-22T01:40:02Z</time>
      </trkpt>
      <trkpt lat="46.84871" lon="4.72273">
        <ele>330</ele>
        <time>2013-05-22T01:40:02Z</time>
      </trkpt>
      <trkpt lat="46.84772" lon="4.72072">
        <ele>335</ele>
        <time>2013-05-22T01:40:02Z</time>
      </trkpt>
      <trkpt lat="46.8484" lon="4.72111">
        <ele>331</ele>
        <time>2013-05-22T01:40:02Z</time>
      </trkpt>
      <trkpt lat="46.84881" lon="4.71997">
        <ele>337</ele>
        <time>2013-05-22T01:40:02Z</time>
      </trkpt>
      <trkpt lat="46.84855" lon="4.71948">
        <ele>341</ele>
      </trkpt>
      <trkpt lat="46.84857" lon="4.71928">
        <ele>343</ele>
        <time>2013-05-22T01:40:02Z</time>
      </trkpt>
      <trkpt lat="46.84866" lon="4.71929">
        <ele>343</ele>
      </trkpt>
      <trkpt lat="46.84886" lon="4.71908">
        <ele>345</ele>
      </trkpt>
      <trkpt lat="46.84902" lon="4.71912">
        <ele>344</ele>
        <time>2013-05-22T01:40:02Z</time>
      </trkpt>
      <trkpt lat="46.84959" lon="4.718">
        <ele>347</ele>
        <time>2013-05-22T01:40:02Z</time>
      </trkpt>
      <trkpt lat="46.84902" lon="4.71737">
        <ele>349</ele>
        <time>2013-05-22T01:40:02Z</time>
      </trkpt>
      <trkpt lat="46.84859" lon="4.71651">
        <ele>356</ele>
        <time>2013-05-22T01:40:02Z</time>
      </trkpt>
      <trkpt lat="46.84815" lon="4.71618">
        <ele>353</ele>
      </trkpt>
      <trkpt lat="46.84777" lon="4.71558">
        <ele>353</ele>
        <time>2013-05-22T01:40:02Z</time>
      </trkpt>
      <trkpt lat="46.84857" lon="4.71438">
        <ele>362</ele>
        <time>2013-05-22T01:40:02Z</time>
      </trkpt>
      <trkpt lat="46.84843" lon="4.7126">
        <ele>347</ele>
        <time>2013-05-22T01:40:02Z</time>
      </trkpt>
      <trkpt lat="46.84824" lon="4.7115">
        <ele>339</ele>
        <time>2013-05-22T01:40:02Z</time>
      </trkpt>
      <trkpt lat="46.84809" lon="4.71118">
        <ele>337</ele>
        <time>2013-05-22T01:40:02Z</time>
      </trkpt>
      <trkpt lat="46.84727" lon="4.7104">
        <ele>327</ele>
        <time>2013-05-22T01:40:02Z</time>
      </trkpt>
      <trkpt lat="46.84672" lon="4.70981">
        <ele>318</ele>
      </trkpt>
      <trkpt lat="46.84628" lon="4.7091">
        <ele>314</ele>
        <time>2013-05-22T01:40:02Z</time>
      </trkpt>
      <trkpt lat="46.84596" lon="4.70897">
        <ele>314</ele>
        <time>2013-05-22T01:40:02Z</time>
      </trkpt>
      <trkpt lat="46.84508" lon="4.70713">
        <ele>316</ele>
        <time>2013-05-22T01:40:02Z</time>
      </trkpt>
      <trkpt lat="46.84465" lon="4.70662">
        <ele>318</ele>
      </trkpt>
      <trkpt lat="46.84413" lon="4.70636">
        <ele>317</ele>
        <time>2013-05-22T01:40:02Z</time>
      </trkpt>
      <trkpt lat="46.84448" lon="4.70549">
        <ele>312</ele>
      </trkpt>
      <trkpt lat="46.84466" lon="4.70471">
        <ele>315</ele>
        <time>2013-05-22T01:40:02Z</time>
      </trkpt>
      <trkpt lat="46.84362" lon="4.70382">
        <ele>315</ele>
        <time>2013-05-22T01:40:02Z</time>
      </trkpt>
      <trkpt lat="46.84306" lon="4.70338">
        <ele>314</ele>
      </trkpt>
      <trkpt lat="46.84247" lon="4.70334">
        <ele>307</ele>
        <time>2013-05-22T01:40:02Z</time>
      </trkpt>
      <trkpt lat="46.84221" lon="4.70398">
        <ele>300</ele>
        <time>2013-05-22T01:40:02Z</time>
      </trkpt>
      <trkpt lat="46.84138" lon="4.70375">
        <ele>290</ele>
        <time>2013-05-22T01:40:02Z</time>
      </trkpt>
      <trkpt lat="46.84089" lon="4.70394">
        <ele>282</ele>
      </trkpt>
      <trkpt lat="46.84041" lon="4.70658">
        <ele>275</ele>
        <time>2013-05-22T01:40:02Z</time>
      </trkpt>
      <trkpt lat="46.84007" lon="4.70827">
        <ele>262</ele>
        <time>2013-05-22T01:40:02Z</time>
      </trkpt>
      <trkpt lat="46.84006" lon="4.70941">
        <ele>257</ele>
      </trkpt>
      <trkpt lat="46.8399" lon="4.71072">
        <ele>247</ele>
        <time>2013-05-22T01:40:02Z</time>
      </trkpt>
      <trkpt lat="46.83885" lon="4.71098">
        <ele>244</ele>
        <time>2013-05-22T01:40:02Z</time>
      </trkpt>
      <trkpt lat="46.83759" lon="4.71383">
        <ele>243</ele>
        <time>2013-05-22T01:40:02Z</time>
      </trkpt>
      <trkpt lat="46.83801" lon="4.71426">
        <ele>241</ele>
        <time>2013-05-22T01:40:02Z</time>
      </trkpt>
      <trkpt lat="46.83854" lon="4.71425">
        <ele>243</ele>
      </trkpt>
      <trkpt lat="46.83918" lon="4.7138">
        <ele>243</ele>
        <time>2013-05-22T01:40:02Z</time>
      </trkpt>
      <trkpt lat="46.8391" lon="4.71304">
        <ele>242</ele>
        <time>2013-05-22T01:40:02Z</time>
      </trkpt>
      <trkpt lat="46.83934" lon="4.71286">
        <ele>242</ele>
      </trkpt>
      <trkpt lat="46.83983" lon="4.71277">
        <ele>243</ele>
        <time>2013-05-22T01:40:02Z</time>
      </trkpt>
      <trkpt lat="46.83982" lon="4.71377">
        <ele>246</ele>
      </trkpt>
      <trkpt lat="46.84003" lon="4.71504">
        <ele>254</ele>
        <time>2013-05-22T01:40:02Z</time>
      </trkpt>
      <trkpt lat="46.83982" lon="4.71626">
        <ele>257</ele>
        <time>2013-05-22T01:40:02Z</time>
      </trkpt>
      <trkpt lat="46.83965" lon="4.71768">
        <ele>259</ele>
        <time>2013-05-22T01:40:02Z</time>
      </trkpt>
      <trkpt lat="46.8394" lon="4.71901">
        <ele>258</ele>
        <time>2013-05-22T01:40:02Z</time>
      </trkpt>
      <trkpt lat="46.83815" lon="4.71846">
        <ele>246</ele>
        <time>2013-05-22T01:40:02Z</time>
      </trkpt>
      <trkpt lat="46.83739" lon="4.71999">
        <ele>238</ele>
        <time>2013-05-22T01:40:02Z</time>
      </trkpt>
      <trkpt lat="46.83714" lon="4.72091">
        <ele>237</ele>
        <time>2013-05-22T01:40:02Z</time>
      </trkpt>
      <trkpt lat="46.83738" lon="4.72161">
        <ele>239</ele>
        <time>2013-05-22T01:40:02Z</time>
      </trkpt>
      <trkpt lat="46.8371" lon="4.72278">
        <ele>237</ele>
        <time>2013-05-22T01:40:02Z</time>
      </trkpt>
      <trkpt lat="46.83583" lon="4.72575">
        <ele>235</ele>
        <time>2013-05-22T01:40:02Z</time>
      </trkpt>
      <trkpt lat="46.83222" lon="4.72433">
        <ele>228</ele>
        <time>2013-05-22T01:40:02Z</time>
      </trkpt>
      <trkpt lat="46.83206" lon="4.72467">
        <ele>228</ele>
        <time>2013-05-22T01:40:02Z</time>
      </trkpt>
      <trkpt lat="46.83143" lon="4.72382">
        <ele>235</ele>
      </trkpt>
      <trkpt lat="46.83121" lon="4.72271">
        <ele>240</ele>
      </trkpt>
      <trkpt lat="46.83131" lon="4.72165">
        <ele>238</ele>
      </trkpt>
      <trkpt lat="46.83176" lon="4.72057">
        <ele>240</ele>
      </trkpt>
      <trkpt lat="46.83369" lon="4.7214">
        <ele>229</ele>
      </trkpt>
      <trkpt lat="46.83349" lon="4.72165">
        <ele>229</ele>
        <time>2013-05-22T01:40:02Z</time>
      </trkpt>
    </trkseg>
  </trk>
</gpx>